Regional Weather Roundup
Issued by NWS Upton, NY

Current Version | Previous Version | Graphics & Text | Print | Product List | Glossary Off
Versions: 1 2 3 4 5 6 7 8 9 10 11 12 13 14 15 16 17 18 19 20 21 22 23 24 25 26 27 28 29 30 31 32 33 34 35 36 37 38 39 40 41 42 43 44 45 46 47 48 49 50

000
ASUS41 KOKX 291808
RWROKX

REGIONAL WEATHER ROUNDUP
NATIONAL WEATHER SERVICE NEW YORK NY
200 PM EDT WED JUL 29 2015

NOTE: "FAIR" INDICATES FEW OR NO CLOUDS BELOW 12,000 FEET WITH NO
SIGNIFICANT WEATHER AND/OR OBSTRUCTIONS TO VISIBILITY.

NYZ071-072-176-178-NJZ106-104-291900-
NEW YORK CITY METRO AREA


CITY           SKY/WX    TMP DP  RH WIND       PRES   REMARKS
CENTRAL PARK   MOSUNNY   92  64  39 CALM      29.98F HX  93
LAGUARDIA APRT PTSUNNY   92  62  36 E8        29.95F HX  92
KENNEDY INTL   PTSUNNY   91  65  41 S14       29.98S HX  93
NEWARK/LIBERTY PTSUNNY   94  61  33 VRB3      29.95F HX  94
BRNX BOT. GARD   N/A    N/A N/A N/A SE2       29.96F
TETERBORO      PTSUNNY   93  60  33 CALM      29.94F HX  93
$$

NYZ177-179-078>081-291900-
LONG ISLAND NEW YORK

CITY           SKY/WX    TMP DP  RH WIND       PRES   REMARKS
FARMINGDALE    PTSUNNY   92  68  45 SW13      29.97S HX  96
ISLIP          CLOUDY    90  68  48 S10       29.95S HX  94
SHIRLEY        PTSUNNY   87  68  52 S13       29.98R HX  90
WESTHAMPTON    PTSUNNY   88  68  51 SW10      29.98S HX  91
MONTAUK POINT    N/A     87  71  58 S6        29.97S HX  93
$$

NYZ052-065-067-291900-
HUDSON VALLEY

CITY           SKY/WX    TMP DP  RH WIND       PRES   REMARKS
WHITE PLAINS   MOSUNNY   90  62  39 SW7       29.97F HX  90
NEWBURGH       SUNNY     90  64  43 CALM      29.98F HX  91
MONTGOMERY     SUNNY     93  60  33 SW8       29.97F HX  93
POUGHKEEPSIE   SUNNY     93  57  29 VRB5      29.95F HX  91
ALBANY         PTSUNNY   91  61  36 VRB3      29.95F HX  91
$$

NJZ001-105-106-008-010-013-015-019>022-104-291900-
NEW JERSEY

CITY           SKY/WX    TMP DP  RH WIND       PRES   REMARKS
NEWARK/LIBERTY PTSUNNY   94  61  33 VRB3      29.95F HX  94
TETERBORO      PTSUNNY   93  60  33 CALM      29.94F HX  93
CALDWELL       SUNNY     94  62  34 NW8       29.96F HX  94
MORRISTOWN     PTSUNNY   95  66  38 W5        29.97F HX  98
SOMERVILLE     MOSUNNY   92  62  36 CALM      29.95F HX  92
SUSSEX         MOSUNNY   89  65  44 SW5       29.99F HX  91
ANDOVER          N/A     90  64  42 CALM      30.00S HX  91
TRENTON        MOSUNNY   90  66  45 SW8       29.97S HX  92
MILLVILLE      MOSUNNY   89  70  53 SW8       29.99F HX  94
ATLANTIC CITY  MOSUNNY   89  71  55 SW8       29.99F HX  95
WRIGHTSTOWN    MOSUNNY   92  69  47 SW8       29.95F HX  97
TOMS RIVER       N/A     91  66  43 SW9       29.98S HX  94
BELMAR         MOSUNNY   90  64  43 S9        29.98S HX  91
$$

PAZ047>061-062-071-291900-
EASTERN PENNSYLVANIA

CITY           SKY/WX    TMP DP  RH WIND       PRES   REMARKS
PHILADELPHIA   PTSUNNY   91  70  49 W10       29.98F HX  96
ALLENTOWN      PTSUNNY   92  68  45 SW8       29.98F HX  96
SCRANTON       SUNNY     90  63  40 VRB5      30.00F HX  91
$$

CTZ002-004>006-009-010-012-RIZ004-006-007-MAZ004-011-015-291900-
SOUTHERN NEW ENGLAND
 IN CT

CITY           SKY/WX    TMP DP  RH WIND       PRES   REMARKS
BRADLEY INTL   PTSUNNY   93  62  35 VRB6      29.94F HX  93
HARTFORD       PTSUNNY   93  63  36 NW9       29.93F HX  94
DANBURY        MOSUNNY   89  59  36 S7        29.99S
WTRBRY/OXFORD  MOSUNNY   88  66  48 VRB5      30.02F HX  90
BRIDGEPORT     PTSUNNY   87  70  56 SW9       29.96F HX  92
MERIDEN        PTSUNNY   92  63  38 VRB6      29.95F HX  93
NEW HAVEN      PTSUNNY   88  66  48 VRB6      29.96F HX  90
CHESTER        FAIR      90  66  45 S6        29.98S HX  92
GROTON         PTSUNNY   83  69  62 S8        29.95S
WILLIMANTIC    PTSUNNY   91  64  40 SW7       29.94F HX  92

 IN RI

CITY           SKY/WX    TMP DP  RH WIND       PRES   REMARKS
PROVIDENCE     PTSUNNY   92  65  40 W12       29.93F HX  94
BLOCK ISLAND     N/A     82  70  65 SW13      29.98S
WESTERLY       PTSUNNY   88  66  48 S10       29.96S HX  90

 IN MA

CITY           SKY/WX    TMP DP  RH WIND       PRES   REMARKS
BOSTON         PTSUNNY   86  65  49 E10       29.91F
WORCESTER      PTSUNNY   87  61  41 W9        29.99S
WESTFIELD      PTSUNNY   90  66  45 SE6       29.95F HX  92
PROVINCETOWN   MOSUNNY   88  63  42 S7        29.93F
NANTUCKET      MOSUNNY   83  70  64 SW13      29.96S
$$

ANZ330-335-338-340-345-350-353-355-291900-
COASTAL MARINE OBSERVATIONS


STATION/POSITION TIME  SKY/WX   TEMP    WIND        PRES    VSBY  WAVE
                                AIR SEA DIR/SP/G                  HT/PER
                 (UTC)          (F)     (DEG/KT/KT) (MB)    (MI)  (FT/S)
NY HARB ENTRANCE 1750            79 78  200/ 10/ 12 1014.9          2/ 7
4S FIRE IS       NOT AVBL
20S FIRE ISLAND  1750            77 75  220/ 10/ 12 1014.9          2/ 7
GREAT SOUTH BAY  1700            79 82  220/ 10/ 12   N/A
23SW MTP         1750            76 75  230/  8/  8 1014.7          2/11
HUDSON CANYON    NOT AVBL
KINGS POINT      1700            89 69   10/  3/  4 1014.1
EXECUTION ROCKS  1700            81     100/  2/  4   N/A
CENTRAL LI SOUND NOT AVBL
EASTERN LI SOUND 1700            76 69  230/  2/  2   N/A
ROBBINS REEF     1700            87     160/ 12/ 13 1013.7
$$


>>>>>>>>>>>>>>>>>>>>>>>>>>>> KEY <<<<<<<<<<<<<<<<<<<<<<<<<<<
>                                                          <
>     SKY/WX - SKY CONDITION/PRESENT WEATHER               <
>     TMP    - TEMPERATURE IN FAHRENHEIT                   <
>     DP     - DEWPOINT IN FAHRENHEIT                      <
>     RH     - RELATIVE HUMIDITY IN PERCENT                <
>     WIND   - DIRECTION AND SPEED IN MPH                  <
>     PRES   - MEAN SEA LEVEL PRESSURE IN INCHES OF HG     <
>     WCI    - WIND CHILL INDEX                            <
>     VSB    - VISIBILITY IN MILES                         <
>     HX     - HEAT INDEX                                  <
>     TC     - TEMPERATURE IN CELSIUS                      <
>     VRB    - VARIABLE WIND DIRECTION                     <
>                                                          <
>>>>>>>>>>>>>>>>>>>>>>>>>>>> KEY <<<<<<<<<<<<<<<<<<<<<<<<<<<




USA.gov is the U.S. government's official web portal to all federal, state and local government web resources and services.